EDT,Max TemperatureF,Mean TemperatureF,Min TemperatureF,Max Dew PointF,MeanDew PointF,Min DewpointF,Max Humidity, Mean Humidity, Min Humidity, Max Sea Level PressureIn, Mean Sea Level PressureIn, Min Sea Level PressureIn, Max VisibilityMiles, Mean VisibilityMiles, Min VisibilityMiles, Max Wind SpeedMPH, Mean Wind SpeedMPH, Max Gust SpeedMPH,PrecipitationIn, CloudCover, Events, WindDirDegrees
2013-7-1,82,72,62,70,64,62,100,79,58,29.95,29.86,29.77,10,4,0,14,1,26,0.51,4,Fog-Rain-Thunderstorm,205
2013-7-2,79,70,61,70,65,60,100,87,74,30.05,29.99,29.91,10,6,0,8,2,12,0.51,5,Fog-Rain-Thunderstorm,124
2013-7-3,80,74,67,72,66,61,90,76,62,30.16,30.11,30.06,10,10,10,7,1,12,T,4,Rain,163
2013-7-4,75,70,65,72,67,63,100,91,82,30.22,30.17,30.09,10,8,2,10,1,25,0.34,7,Rain,136
2013-7-5,81,73,64,69,66,64,100,81,62,30.20,30.15,30.11,10,5,0,8,1,17,0.06,6,Fog-Rain,112
2013-7-6,79,73,66,73,68,65,100,87,74,30.19,30.15,30.10,10,6,0,12,2,20,0.79,7,Fog-Rain,158
2013-7-7,81,73,65,70,66,64,100,84,67,30.19,30.14,30.07,10,4,0,6,0,13,1.30,7,Fog-Rain,160
2013-7-8,85,76,66,72,67,64,100,78,55,30.22,30.15,30.10,10,9,1,7,0,10,0.00,1,,-1
2013-7-9,88,79,70,73,69,66,90,74,57,30.18,30.10,30.05,10,10,10,7,0,10,T,1,,250
2013-7-10,87,78,69,75,69,66,100,83,65,30.06,29.98,29.90,10,4,0,20,1,31,0.28,5,Fog-Rain-Thunderstorm,291
2013-7-11,82,74,66,68,67,64,100,81,62,30.02,29.98,29.90,10,5,0,13,1,18,T,7,Fog-Rain-Thunderstorm,313
2013-7-12,78,70,61,64,61,57,93,75,56,30.07,30.01,29.96,10,10,6,6,1,12,0.00,3,,-1
2013-7-13,82,71,60,70,63,57,100,82,63,30.13,30.09,30.01,10,6,0,7,1,15,0.61,4,Fog-Rain-Thunderstorm,285
2013-7-14,86,78,69,71,67,64,84,71,58,30.24,30.17,30.10,10,10,10,9,3,16,T,3,Rain,137
2013-7-15,87,78,69,69,66,64,84,66,48,30.32,30.28,30.24,10,10,10,7,1,10,0.00,1,,112
2013-7-16,89,80,70,73,70,68,97,75,52,30.34,30.29,30.26,10,10,10,5,0,8,0.00,0,,115
2013-7-17,87,79,71,77,73,70,100,88,76,30.34,30.28,30.21,10,5,0,9,0,14,0.22,3,Fog-Rain-Thunderstorm,292
2013-7-18,89,79,68,75,70,66,100,80,59,30.24,30.18,30.07,10,5,0,6,0,9,0.00,2,Fog,95
2013-7-19,88,80,71,74,72,70,100,83,65,30.12,30.06,29.96,10,6,0,7,1,15,0.00,2,Fog-Thunderstorm,-1
2013-7-20,88,79,70,73,70,68,100,80,59,30.00,29.95,29.90,10,10,7,8,1,16,T,2,Rain-Thunderstorm,310
2013-7-21,83,76,69,73,70,66,97,86,74,30.04,29.97,29.91,10,5,0,9,1,21,0.81,5,Fog-Rain-Thunderstorm,281
2013-7-22,80,75,69,73,69,68,100,87,74,30.00,29.89,29.81,10,6,0,5,1,10,0.68,6,Fog-Rain,285
2013-7-23,86,78,70,72,70,67,100,78,55,29.92,29.87,29.78,10,6,2,8,2,16,0.05,6,Rain,265
2013-7-24,78,72,65,72,66,62,93,79,64,29.94,29.88,29.78,10,10,7,9,2,15,0.00,6,,322
2013-7-25,77,68,59,61,58,56,97,76,54,30.08,30.01,29.94,10,10,7,6,0,10,0.00,1,,-1
2013-7-26,82,71,59,65,60,56,90,72,54,30.09,30.05,29.99,10,10,9,7,0,10,0.00,1,,-1
2013-7-27,78,72,65,66,64,61,93,75,56,29.99,29.94,29.88,10,6,1,13,2,17,0.41,4,Rain,302
2013-7-28,76,68,59,64,59,50,100,75,49,30.10,29.99,29.91,10,7,0,9,2,15,0.00,4,Fog,303
2013-7-29,78,67,55,58,55,52,93,70,46,30.21,30.16,30.09,10,10,10,7,1,10,0.00,1,,173
2013-7-30,75,67,59,64,59,56,90,74,57,30.24,30.20,30.15,10,10,10,3,0,6,T,1,Rain,160
2013-7-31,72,68,64,66,65,62,100,92,84,30.16,30.06,29.98,10,5,0,6,0,9,0.05,8,Fog-Rain,130